RYR624V EGNX-LEMI

Flight info

Callsign RYR624V
Flight time 2h 33m
Altitude 34000
Route SAPCO1P SAPCO Y53 DTY M605 FINMA UM605 SILVA Q41 COWLY DCT GWC/N0432F330 UN859 SITET/N0439F350 UN859 SOPIL DCT BALAN DCT LMG DCT PIMQO DCT AGN DCT ANETO DCT POSSY DCT XIMPE DCT RIMES DCT SAURA DCT TATOS DCT PLANA DCT VLC L34 ALT DCT
Aircraft B738/M-SDE2E3FGHIRWXY/LB1

Departure

Time 2026-04-24 16:21
Airport East Midlands Airport (EGNX)

Arrival

Time 2026-04-24 18:54
Airport Region of Murcia International Airport (LEMI)
Time Latitude Longitude Altitude Speed Heading
2026-04-24 15:36 52.82730 -1.32870 302 ft 0 kts 178°
2026-04-24 15:54 52.82731 -1.32870 300 ft 0 kts 178°
2026-04-24 16:11 52.82764 -1.32872 301 ft 4 kts 178°
2026-04-24 16:11 52.82791 -1.32872 302 ft 4 kts 188°
2026-04-24 16:11 52.82816 -1.32861 300 ft 4 kts 196°
2026-04-24 16:12 52.82857 -1.32857 300 ft 0 kts 178°
2026-04-24 16:16 52.82856 -1.32857 300 ft 1 kts 178°
2026-04-24 16:16 52.82834 -1.32857 300 ft 6 kts 180°
2026-04-24 16:17 52.82796 -1.33142 300 ft 12 kts 294°
2026-04-24 16:17 52.82922 -1.33221 301 ft 12 kts 282°
2026-04-24 16:18 52.82921 -1.33334 305 ft 12 kts 269°
2026-04-24 16:18 52.82914 -1.33725 303 ft 19 kts 268°
2026-04-24 16:18 52.82910 -1.33947 303 ft 20 kts 268°
2026-04-24 16:19 52.82906 -1.34474 306 ft 22 kts 268°
2026-04-24 16:19 52.82908 -1.34621 303 ft 9 kts 287°
2026-04-24 16:20 52.83025 -1.34657 303 ft 9 kts 19°
2026-04-24 16:20 52.83070 -1.34517 300 ft 0 kts 87°
2026-04-24 16:20 52.83070 -1.34509 300 ft 2 kts 88°
2026-04-24 16:21 52.83094 -1.33150 308 ft 132 kts 88°
2026-04-24 16:21 52.83141 -1.31367 626 ft 168 kts 89°
2026-04-24 16:21 52.83194 -1.29348 1449 ft 187 kts 91°
2026-04-24 16:22 52.83022 -1.27171 2321 ft 187 kts 98°
2026-04-24 16:22 52.82341 -1.22616 3538 ft 221 kts 121°
2026-04-24 16:22 52.81282 -1.20742 4365 ft 219 kts 133°
2026-04-24 16:23 52.80294 -1.19008 5478 ft 198 kts 133°
2026-04-24 16:23 52.79334 -1.17407 6240 ft 202 kts 134°
2026-04-24 16:23 52.78268 -1.15684 6431 ft 226 kts 142°
2026-04-24 16:24 52.75086 -1.15090 7089 ft 256 kts 209°
2026-04-24 16:24 52.73641 -1.16986 7462 ft 275 kts 222°
2026-04-24 16:24 52.72192 -1.19090 8110 ft 280 kts 220°
2026-04-24 16:24 52.70704 -1.21131 8810 ft 284 kts 219°
2026-04-24 16:25 52.69158 -1.23184 9536 ft 286 kts 219°
2026-04-24 16:25 52.67598 -1.25230 10395 ft 287 kts 219°
2026-04-24 16:25 52.65991 -1.27326 10769 ft 306 kts 219°
2026-04-24 16:26 52.62413 -1.31970 11404 ft 342 kts 218°
2026-04-24 16:26 52.60530 -1.34408 12112 ft 346 kts 218°
2026-04-24 16:26 52.56003 -1.36679 13608 ft 353 kts 174°
2026-04-24 16:27 52.53630 -1.35632 14332 ft 356 kts 159°
2026-04-24 16:27 52.51329 -1.34079 14972 ft 360 kts 157°
2026-04-24 16:27 52.49021 -1.32461 15739 ft 360 kts 157°
2026-04-24 16:27 52.46718 -1.30842 16433 ft 363 kts 157°
2026-04-24 16:28 52.44391 -1.29224 17157 ft 363 kts 157°
2026-04-24 16:28 52.42044 -1.27608 17794 ft 368 kts 158°
2026-04-24 16:28 52.37295 -1.24378 19021 ft 375 kts 158°
2026-04-24 16:29 52.34869 -1.22738 19485 ft 380 kts 158°
2026-04-24 16:29 52.32468 -1.21119 20215 ft 377 kts 159°
2026-04-24 16:29 52.27490 -1.17770 21048 ft 392 kts 159°
2026-04-24 16:30 52.22353 -1.14320 21857 ft 404 kts 160°
2026-04-24 16:30 52.19747 -1.12574 22388 ft 407 kts 160°
2026-04-24 16:30 52.17084 -1.10984 22846 ft 409 kts 168°
2026-04-24 16:31 52.14300 -1.09998 23308 ft 411 kts 173°
2026-04-24 16:31 52.11479 -1.09154 23773 ft 414 kts 173°
2026-04-24 16:31 52.08636 -1.08303 24154 ft 418 kts 173°
2026-04-24 16:31 52.05761 -1.07406 24549 ft 421 kts 173°
2026-04-24 16:32 52.03856 -1.06794 24792 ft 423 kts 173°
2026-04-24 16:32 51.99960 -1.05528 25140 ft 431 kts 174°
2026-04-24 16:32 51.97017 -1.04558 25519 ft 433 kts 173°
2026-04-24 16:32 51.94054 -1.03569 25951 ft 435 kts 173°
2026-04-24 16:33 51.91085 -1.02580 26340 ft 437 kts 173°
2026-04-24 16:33 51.88098 -1.01591 26695 ft 439 kts 174°
2026-04-24 16:33 51.85081 -1.00929 27028 ft 437 kts 182°
2026-04-24 16:33 51.82056 -1.01058 27378 ft 433 kts 192°
2026-04-24 16:34 51.79133 -1.01818 27734 ft 432 kts 194°
2026-04-24 16:34 51.76167 -1.02662 28104 ft 434 kts 194°
2026-04-24 16:34 51.73182 -1.03494 28422 ft 437 kts 194°
2026-04-24 16:34 51.70174 -1.04297 28739 ft 439 kts 194°
2026-04-24 16:35 51.67147 -1.05081 29056 ft 442 kts 193°
2026-04-24 16:35 51.64098 -1.05807 29369 ft 446 kts 189°
2026-04-24 16:35 51.60965 -1.05883 29672 ft 454 kts 180°
2026-04-24 16:35 51.57812 -1.05157 29991 ft 462 kts 171°
2026-04-24 16:36 51.54726 -1.03903 30331 ft 464 kts 169°
2026-04-24 16:36 51.51645 -1.02580 30702 ft 462 kts 169°
2026-04-24 16:36 51.48549 -1.01242 31117 ft 460 kts 169°
2026-04-24 16:36 51.45488 -0.99936 31503 ft 458 kts 169°
2026-04-24 16:37 51.42466 -0.98670 31845 ft 457 kts 169°
2026-04-24 16:37 51.39397 -0.97403 32180 ft 456 kts 169°
2026-04-24 16:37 51.37338 -0.96560 32420 ft 455 kts 169°
2026-04-24 16:37 51.33279 -0.94909 32914 ft 453 kts 169°
2026-04-24 16:38 51.30232 -0.93673 33275 ft 451 kts 169°
2026-04-24 16:38 51.27200 -0.92445 33660 ft 449 kts 169°
2026-04-24 16:38 51.24175 -0.91221 33988 ft 448 kts 169°
2026-04-24 16:38 51.21153 -0.90000 34252 ft 449 kts 169°
2026-04-24 16:39 51.15040 -0.87537 34241 ft 454 kts 169°
2026-04-24 16:39 51.08968 -0.85088 34228 ft 446 kts 169°
2026-04-24 16:40 51.04104 -0.83134 34245 ft 445 kts 169°
2026-04-24 16:40 50.98130 -0.80741 34248 ft 446 kts 169°
2026-04-24 16:41 50.92102 -0.78332 34248 ft 447 kts 169°
2026-04-24 16:41 50.86098 -0.75734 34226 ft 451 kts 162°
2026-04-24 16:42 50.80572 -0.70926 34252 ft 456 kts 150°
2026-04-24 16:42 50.75264 -0.65389 34239 ft 457 kts 150°
2026-04-24 16:43 50.70041 -0.59992 34241 ft 456 kts 150°
2026-04-24 16:43 50.64708 -0.54566 34237 ft 456 kts 150°
2026-04-24 16:44 50.59348 -0.49155 34497 ft 458 kts 150°
2026-04-24 16:44 50.56671 -0.46458 34830 ft 455 kts 150°
2026-04-24 16:44 50.54009 -0.43780 35172 ft 452 kts 150°
2026-04-24 16:45 50.48669 -0.38419 35237 ft 457 kts 150°
2026-04-24 16:45 50.43327 -0.33066 35228 ft 452 kts 150°
2026-04-24 16:46 50.38056 -0.27798 35231 ft 448 kts 150°
2026-04-24 16:46 50.32815 -0.22577 35234 ft 446 kts 150°
2026-04-24 16:47 50.27570 -0.17366 35235 ft 446 kts 150°
2026-04-24 16:47 50.22336 -0.12178 35232 ft 446 kts 150°
2026-04-24 16:48 50.17122 -0.07021 35228 ft 446 kts 150°
2026-04-24 16:48 50.11830 -0.01821 35229 ft 447 kts 152°
2026-04-24 16:49 50.06110 0.01724 35232 ft 442 kts 168°
2026-04-24 16:49 50.00162 0.03960 35218 ft 443 kts 169°
2026-04-24 16:50 49.94159 0.06231 35203 ft 445 kts 168°
2026-04-24 16:50 49.88135 0.08572 35213 ft 447 kts 168°
2026-04-24 16:51 49.82102 0.10930 35196 ft 448 kts 169°
2026-04-24 16:51 49.76042 0.13293 35191 ft 449 kts 168°
2026-04-24 16:52 49.69975 0.15649 35185 ft 449 kts 168°
2026-04-24 16:52 49.63916 0.18045 35185 ft 450 kts 167°
2026-04-24 16:53 49.57870 0.20510 35181 ft 449 kts 167°
2026-04-24 16:53 49.51828 0.22965 35182 ft 449 kts 167°
2026-04-24 16:54 49.45790 0.25402 35185 ft 448 kts 167°
2026-04-24 16:54 49.39768 0.27824 35183 ft 447 kts 167°
2026-04-24 16:55 49.33746 0.30240 35180 ft 447 kts 167°
2026-04-24 16:55 49.27744 0.32676 35183 ft 446 kts 167°
2026-04-24 16:56 49.21761 0.35204 35164 ft 446 kts 166°
2026-04-24 16:56 49.15782 0.37731 35160 ft 445 kts 166°
2026-04-24 16:57 49.09808 0.40237 35162 ft 445 kts 166°
2026-04-24 16:57 49.03866 0.42719 35144 ft 446 kts 166°
2026-04-24 16:58 48.97884 0.45212 35157 ft 446 kts 166°
2026-04-24 16:58 48.91844 0.47723 35162 ft 453 kts 166°
2026-04-24 16:59 48.85725 0.50258 35164 ft 458 kts 165°
2026-04-24 17:00 48.76585 0.54016 35133 ft 448 kts 166°
2026-04-24 17:00 48.67524 0.57538 35157 ft 452 kts 167°
2026-04-24 17:01 48.58270 0.61138 35156 ft 458 kts 166°
2026-04-24 17:02 48.49132 0.64717 35143 ft 450 kts 166°
2026-04-24 17:02 48.43082 0.67187 35144 ft 451 kts 165°
2026-04-24 17:03 48.33974 0.70896 35146 ft 452 kts 165°
2026-04-24 17:04 48.27884 0.73357 35145 ft 454 kts 165°
2026-04-24 17:04 48.18703 0.77012 35132 ft 456 kts 166°
2026-04-24 17:05 48.12604 0.79403 35124 ft 456 kts 166°
2026-04-24 17:06 48.03386 0.83016 35114 ft 457 kts 166°
2026-04-24 17:06 47.94169 0.86621 35121 ft 457 kts 166°
2026-04-24 17:07 47.88024 0.89017 35117 ft 457 kts 166°
2026-04-24 17:08 47.75729 0.93785 35125 ft 456 kts 166°
2026-04-24 17:08 47.69579 0.96159 35119 ft 457 kts 166°
2026-04-24 17:09 47.57277 1.00894 35113 ft 457 kts 166°
2026-04-24 17:10 47.45022 1.05585 35109 ft 456 kts 167°
2026-04-24 17:11 47.35583 1.06382 35097 ft 454 kts 183°
2026-04-24 17:12 47.19803 1.05876 35096 ft 454 kts 182°
2026-04-24 18:54 37.80350 -1.13118 646 ft 0 kts 316°